HST 1 20580U 90037B 25189.50492878 .00004213 00000-0 15337-3 0 9994 2 20580 28.4682 260.3985 0001848 339.8718 20.1803 15.25514129735947 ISS (ZARYA) 1 25544U 98067A 25190.52144679 .00007341 00000-0 13435-3 0 9999 2 25544 51.6352 196.3664 0002539 358.9095 107.2378 15.50452632518620 CXO 1 25867U 99040B 25190.59594014 .00000634 00000-0 00000-0 0 9997 2 25867 49.9420 128.7398 8385670 309.7762 0.7190 0.37799042 16035